Weather History for KTUP - January, 2012

Change the Weather History Date:

Monday, January 16, 2012

  Actual Average Record
Temperature  
Mean Temperature 55 °F 41 °F  
Max Temperature 63 °F 51 °F 78 °F (1943)
Min Temperature 47 °F 31 °F 6 °F (1972)
Degree Days  
Heating Degree Days 10 24  
Month to date heating degree days 287 380  
Since 1 July heating degree days 1391 1553  
Cooling Degree Days 0 0  
Month to date cooling degree days 0 0  
Year to date cooling degree days 0 0  
Growing Degree Days 6 (Base 50)    
Moisture  
Dew Point 47 °F    
Average Humidity 68    
Maximum Humidity 83    
Minimum Humidity 52    
Precipitation  
Precipitation 0.05 in 0.14 in 1.71 in (2010)
Month to date precipitation 2.14 2.32  
Year to date precipitation 2.14 2.32  
Snow  
Snow 0.00 in 0.00 in 2.50 in (1998)
Month to date snowfall 0.0 0.5  
Since 1 July snowfall T 0.8  
Snow Depth 0.00 in    
Sea Level Pressure  
Sea Level Pressure 30.20 in    
Wind  
Wind Speed 13 mph (SSW)    
Max Wind Speed 23 mph    
Max Gust Speed 31 mph    
Visibility 10 miles    
Events Rain    
T = Trace of Precipitation, MM = Missing Value Source: NWS Daily Summary

Daily Weather History Graph

Daily Weather History Graph

Search for Another Location

Airport or City:

Trip Planner

Search our weather history database for the weather conditions in past years. The results will help you decide how hot, cold, wet, or windy it might be!

Date:

Astronomy

Jan. 16, 2012 Rise Set
Actual Time 7:00 AM CST 5:08 PM CST
Civil Twilight 6:33 AM CST 5:36 PM CST
Nautical Twilight 6:02 AM CST 6:06 PM CST
Astronomical Twilight 5:32 AM CST 6:37 PM CST
Moon 12:14 AM CST (1/16) 11:18 AM CST (1/16)
Length of Visible Light 11h 02m
Length of Day
10h 08m
Last Quarter, 46% of the Moon is Illuminated
Jan 16
Last Quarter
Jan 23
New
Jan 30
First Quarter
Feb 7
Full
Feb 14
Last Quarter

Hourly Weather History & Observations

Time (CST) Temp. Dew Point Humidity Pressure Visibility Wind Dir Wind Speed Gust Speed Precip Events Conditions
12:53 AM 48.0 °F 33.1 °F 56% 30.31 in 10.0 mi SSW 10.4 mph - N/A   Partly Cloudy
1:53 AM 48.9 °F 33.1 °F 54% 30.30 in 10.0 mi SSW 8.1 mph - N/A   Partly Cloudy
2:53 AM 48.9 °F 34.0 °F 56% 30.30 in 10.0 mi SSW 8.1 mph - N/A   Overcast
3:53 AM 50.0 °F 34.0 °F 54% 30.29 in 10.0 mi South 8.1 mph - N/A   Overcast
4:53 AM 48.9 °F 35.1 °F 59% 30.29 in 10.0 mi South 8.1 mph - N/A   Overcast
5:53 AM 48.9 °F 35.1 °F 59% 30.28 in 10.0 mi South 10.4 mph - N/A   Overcast
6:53 AM 48.0 °F 39.0 °F 71% 30.28 in 10.0 mi SSW 10.4 mph - N/A   Overcast
7:53 AM 48.0 °F 44.1 °F 86% 30.28 in 7.0 mi South 12.7 mph - 0.04 in Rain Light Rain
8:53 AM 48.9 °F 46.0 °F 90% 30.28 in 10.0 mi SSW 13.8 mph - 0.01 in   Overcast
9:53 AM 51.1 °F 46.9 °F 86% 30.27 in 10.0 mi SSW 12.7 mph - N/A   Overcast
10:53 AM 54.0 °F 48.9 °F 83% 30.25 in 10.0 mi SSW 18.4 mph - N/A   Overcast
11:53 AM 57.0 °F 50.0 °F 77% 30.22 in 10.0 mi SSW 15.0 mph 21.9 mph N/A   Overcast
12:03 PM 57.2 °F 50.0 °F 77% 30.21 in 10.0 mi SSW 16.1 mph - N/A   Overcast
12:32 PM 57.2 °F 51.8 °F 82% 30.19 in 10.0 mi SSW 13.8 mph - N/A   Overcast
12:53 PM 59.0 °F 52.0 °F 78% 30.17 in 10.0 mi SSW 12.7 mph - N/A   Overcast
1:34 PM 60.8 °F 51.8 °F 72% 30.15 in 10.0 mi SSW 13.8 mph - N/A   Overcast
1:53 PM 61.0 °F 53.1 °F 75% 30.14 in 10.0 mi SSW 15.0 mph - N/A   Overcast
2:13 PM 60.8 °F 53.6 °F 77% 30.14 in 10.0 mi SSW 12.7 mph - N/A   Overcast
2:53 PM 62.1 °F 53.1 °F 72% 30.13 in 10.0 mi SSW 13.8 mph 21.9 mph N/A   Overcast
3:53 PM 61.0 °F 53.1 °F 75% 30.13 in 10.0 mi SSW 11.5 mph - N/A   Overcast
4:53 PM 62.1 °F 53.1 °F 72% 30.12 in 10.0 mi SSW 12.7 mph 19.6 mph N/A   Overcast
5:53 PM 62.1 °F 53.1 °F 72% 30.12 in 10.0 mi South 13.8 mph 21.9 mph N/A   Overcast
6:53 PM 63.0 °F 53.1 °F 70% 30.11 in 10.0 mi South 16.1 mph 24.2 mph N/A   Overcast
7:53 PM 63.0 °F 52.0 °F 67% 30.11 in 10.0 mi South 16.1 mph 23.0 mph N/A   Overcast
8:53 PM 63.0 °F 52.0 °F 67% 30.09 in 10.0 mi SSW 16.1 mph 26.5 mph N/A   Mostly Cloudy
9:53 PM 62.1 °F 52.0 °F 70% 30.11 in 10.0 mi SSW 19.6 mph 25.3 mph N/A   Overcast
10:53 PM 61.0 °F 52.0 °F 72% 30.11 in 10.0 mi SSW 17.3 mph - N/A   Mostly Cloudy
11:53 PM 60.1 °F 52.0 °F 75% 30.10 in 10.0 mi SSW 16.1 mph - N/A   Overcast